Flag for Morocco Weather past 2 weeks in Casablanca, Morocco

Now
79 °F

Scattered clouds.


Feels Like: 82 °F
Forecast: 72 / 81 °F
Wind: 5 mph from Northwest

Location: Casablanca Airport

Current Time: Oct 1, 2014 at 4:37:03 PM

Latest Report: Oct 1, 2014 at 4:00 PM


Visibility: N/A

Pressure: 29.92 "Hg

Humidity: 79%

Dew point: 72 °F

Location of CasablancaLocation

Historic Weather in Casablanca — Graph

°F

Casablanca temperature yesterday

Maximum temperature yesterday: 77 °F (at 12:00 PM)
Minimum temperature yesterday: 68 °F (at 8:00 AM)
Average temperature yesterday: 74 °F

Past Weeks' High & Low Weather Summary

 TemperatureHumidityPressure
High81 °F (Sep 17, 3:00 PM)100% (Sep 22, 7:00 AM)30.12 "Hg (Sep 22, 7:00 AM)
Low64 °F (Sep 23, 7:00 AM)54% (Sep 17, 3:00 PM)29.83 "Hg (Sep 16, 3:00 PM)
Average73 °F78%29.98 "Hg
* Reported Sep 16 3:00 PM — Oct 1 3:00 PM, Casablanca, Weather by CustomWeather, © 2014

Note: Actual official high and low records may vary slightly from our data, if they occured in-between our weather recording intervals... More about our weather records

Advertising

Casablanca weather history for previous 24 hours

 ConditionsComfort  
Time TempWeatherWind HumidityBarometerVisibility
3:00 PM
Oct 1
79 °FScattered clouds.5 mph79%29.95 "HgN/A
2:00 PM79 °FScattered clouds.5 mph74%29.98 "HgN/A
1:00 PM79 °FPartly sunny.5 mph74%29.98 "HgN/A
12:00 PM77 °FPartly sunny.5 mph79%29.98 "HgN/A
11:00 AM77 °FPartly sunny.5 mph83%29.95 "HgN/A
10:00 AM75 °FPartly sunny.5 mph83%29.95 "HgN/A
9:00 AM73 °FClear.2 mph89%29.95 "Hg4 mi
7:00 AM73 °FClear.2 mph89%29.95 "Hg4 mi
2:00 AM73 °FPassing clouds.2 mph94%29.95 "Hg4 mi
1:00 AM73 °FPassing clouds.3 mph94%29.98 "Hg4 mi
12:00 AM73 °FPassing clouds.2 mph94%29.98 "Hg5 mi
11:00 PM
Sep 30
73 °FPassing clouds.2 mph94%29.98 "Hg5 mi
10:00 PM73 °FPartly cloudy.2 mph89%29.98 "Hg5 mi
9:00 PM73 °FPassing clouds.2 mph89%29.98 "HgN/A
8:00 PM73 °FPassing clouds.7 mph89%29.95 "HgN/A
7:00 PM75 °FPassing clouds.7 mph83%29.95 "HgN/A
6:00 PM75 °FPartly sunny.7 mph78%29.95 "HgN/A
5:00 PM75 °FPartly sunny.7 mph83%29.95 "HgN/A
4:00 PM77 °FPartly sunny.9 mph79%29.98 "HgN/A
Weather by CustomWeather, © 2014

See weather overviewHow to use our weather pages